Location: Marse
(42.1502°N, 110.9866°W)
Time: 16:28:32
(UTC+00:00)

QB50P2 - Pass Details

Date: 30 June 2022
Orbit: 590 x 605 km, 97.9° (Epoch: 18 August)

Event Time Altitude Azimuth Distance (km) Brightness Sun altitude
Rises 09:34:12 0° 2° (N) 2,859 ? -18.4°
Reaches altitude 10° 09:36:34 10° 351° (N) 1,954 ? -18.2°
Maximum altitude 09:40:14 29° 291° (WNW) 1,109 ? -17.9°
Enters shadow 09:41:30 25° 260° (W) 1,238 ? -17.7°
